TIME,DELAY(SENSOR),PRES,T(CTD),SAL,OXYGEN,RAWTEMP,T(OPTODE),TCPHASE,TURBIDITY,TURBIDITY_GAIN,FLUOR,BETA,CDOM,ED411.5,ED443.8,ED489.6,PAR,COMP,TILT,TILTY(TILT),CHECK
1341181033,6467,291.6400146484375000,4.6967000961303710,34.9606018066406250,342.0986938476562500,767.6674194335938000,4.6675472259521480,34.4977607727050800,16,3,50,106,64,2147249755,2147558861,2147568708,2147359798,2276,0,-12,26565
1341181095,6469,287.1199951171875000,4.7128000259399410,34.9625015258789060,341.9401855468750000,767.1881103515625000,4.6843738555908200,34.4937286376953100,16,3,49,109,66,2147247912,2147557984,2147570080,2147360557,1400,0,-12,60332
1341181157,6468,282.5400085449219000,4.6974000930786130,34.9593009948730500,340.5448913574219000,767.5640869140625000,4.6711750030517580,34.5497093200683600,16,3,50,109,65,2147245814,2147558079,2147569435,2147361142,300,0,-12,1923
1341181219,6467,277.9800109863281000,4.6912999153137210,34.9578018188476560,339.8739013671875000,767.7484741210938000,4.6646981239318850,34.5767211914062500,16,3,50,110,65,2147244890,2147560438,2147570202,2147358486,2726,0,-12,16792
1341181281,6468,273.5100097656250000,4.7098999023437500,34.9565010070800800,337.6123046875000000,767.2698974609375000,4.6815009117126465,34.6468505859375000,16,3,49,109,64,2147244685,2147556877,2147570426,2147364401,1837,0,-12,40354
1341181343,6468,269.0599975585937500,4.7364001274108890,34.9580001831054700,335.6668090820312500,766.3999023437500000,4.7120299339294430,34.6977691650390600,24,3,50,115,66,2147246221,2147556543,2147568040,2147362033,914,0,-12,32292
1341181405,6468,264.6799926757812500,4.7532000541687010,34.9586982727050800,334.9858093261719000,765.9395751953125000,4.7281799316406250,34.7128410339355500,16,3,49,115,66,2147247583,2147557777,2147569672,2147361219,3260,0,-12,31488
1341181467,6466,260.3699951171875000,4.8076000213623050,34.9636001586914060,332.2616882324219000,764.5941162109375000,4.7753658294677730,34.7832984924316400,16,3,50,113,66,2147244214,2147560671,2147566098,2147363236,2270,0,-12,13652
1341181529,6467,256.1000061035156000,4.8215999603271480,34.9648017883300800,331.6784057617187500,764.1182861328125000,4.7920460700988770,34.7946891784668000,16,3,50,117,66,2147248018,2147557850,2147568671,2147361686,1510,0,-12,3350
1341181591,6466,251.8899993896484400,4.8470001220703125,34.9677009582519500,331.1914978027344000,763.5723876953125000,4.8111758232116700,34.8012390136718750,16,3,50,112,66,2147245558,2147560012,2147567968,2147363519,836,0,-12,27126
1341181653,6468,247.7700042724609400,4.8541998863220215,34.9681015014648440,331.0111999511719000,763.1668701171875000,4.8253879547119140,34.7994003295898440,16,3,48,118,65,2147244155,2147560781,2147569334,2147363844,3217,0,-12,5295
1341181741,6468,242.6199951171875000,4.8538999557495120,34.9679985046386700,331.1765136718750000,763.2772827148438000,4.8215198516845700,34.7959098815918000,16,3,50,115,66,2147248191,2147557562,2147568754,2147363628,2058,0,-12,18935
1341181803,6468,239.8000030517578000,4.8571000099182130,34.9682998657226560,331.0710144042969000,763.0430908203125000,4.8297228813171390,34.7945899963378900,16,3,50,118,66,2147244932,2147559638,2147568584,2147362820,1547,0,-12,41956
1341181867,6468,236.9100036621093800,4.8835000991821290,34.9695014953613300,331.5831909179687500,762.3674926757812000,4.8533902168273930,34.7629394531250000,16,3,50,115,66,2147246509,2147559752,2147568781,2147363222,1106,0,-12,46741
1341181929,6468,234.1100006103515600,4.9082999229431150,34.9710998535156250,332.8581848144531000,761.6748046875000000,4.8776488304138180,34.7030410766601560,13,3,50,112,66,2147242500,2147556859,2147567245,2147364681,356,0,-12,30101
1341181992,6468,231.1900024414062500,4.9359998703002930,34.9734001159668000,332.3869018554687500,760.8812255859375000,4.9054298400878910,34.7041893005371100,16,3,49,126,65,2147245105,2147556091,2147568644,2147364890,3132,0,-12,17433
1341182054,6468,228.3600006103515600,4.9408001899719240,34.9743995666503900,331.8132934570312500,760.6651000976562000,4.9129939079284670,34.7202796936035160,16,3,50,111,66,2147242966,2147556232,2147570892,2147364223,2536,0,-12,55164
1341182118,6466,225.3999938964843800,4.9583001136779785,34.9744987487793000,331.1198120117187500,760.1171264648438000,4.9321727752685550,34.7344093322753900,16,3,50,120,66,2147243899,2147558193,2147571048,2147364621,1940,0,-12,34004
1341182180,6465,222.5700073242187500,4.9766001701354980,34.9756011962890600,330.9050903320312500,759.6367187500000000,4.9489798545837400,34.7324218750000000,19,3,50,118,66,2147241371,2147556361,2147568305,2147362925,1432,0,-12,20521
1341182244,6467,219.6300048828125000,4.9874000549316410,34.9765014648437500,330.6647949218750000,759.3624877929688000,4.9585700035095215,34.7357902526855500,16,3,50,113,66,2147241513,2147556355,2147567968,2147361440,947,0,-12,8608
1341182306,6467,216.7200012207031200,4.9991002082824710,34.9776000976562500,330.9234924316406000,759.0233154296875000,4.9704360961914060,34.7198486328125000,16,3,50,114,66,2147244054,2147555721,2147569165,2147364123,354,0,-12,4265
1341182370,6467,213.7400054931640600,5.0142998695373535,34.9780006408691400,331.3839111328125000,758.5026855468750000,4.9886422157287600,34.6925582885742200,16,3,50,117,64,2147241590,2147556831,2147566637,2147360722,3210,0,-12,26822
1341182432,6468,210.8600006103515600,5.0198001861572270,34.9784011840820300,332.0071105957031000,758.3964233398438000,4.9923610687255860,34.6684799194335940,16,3,48,112,66,2147242715,2147558810,2147566989,2147361458,2513,0,-12,16805
1341182496,6468,207.8600006103515600,5.0219998359680180,34.9782981872558600,332.1523132324219000,758.3629760742188000,4.9935259819030760,34.6624488830566400,10,3,49,118,66,2147242313,2147557151,2147567697,2147362331,2165,0,-12,9015
1341182558,6504,205.0099945068359400,5.0286002159118650,34.9780006408691400,332.2137145996094000,758.2191162109375000,4.9985599517822270,34.6572189331054700,36,3,49,117,65,2147244859,2147556685,2147571012,2147360808,1775,0,-12,53817
1341182621,6465,202.1399993896484400,5.0385999679565430,34.9775009155273440,333.6224975585937500,757.8873291015625000,5.0101590156555180,34.6003684997558600,16,3,50,114,65,2147247185,2147558258,2147569174,2147362472,1307,0,-12,20595
1341182683,6469,199.3399963378906200,5.0577998161315920,34.9782981872558600,333.6907043457031000,757.2935180664062000,5.0309119224548340,34.5861015319824200,16,3,50,117,66,2147244086,2147556648,2147569362,2147360576,827,0,-12,28615
1341182747,6465,196.4199981689453000,5.0826001167297360,34.9810981750488300,333.6553039550781000,756.6859741210938000,5.0521388053894040,34.5754013061523440,16,3,50,114,65,2147241992,2147557064,2147567002,2147359423,919,0,-12,52913
1341182809,6468,193.5500030517578000,5.0878000259399410,34.9813995361328100,333.5036926269531000,756.5017700195312000,5.0585770606994630,34.5771217346191400,16,3,50,114,65,2147246550,2147554048,2147568845,2147360850,2936,0,-12,57923
1341182873,6467,190.6000061035156200,5.1114001274108890,34.9835014343261700,333.7229919433594000,755.8790893554688000,5.0803318023681640,34.5570182800293000,16,3,50,113,64,2147242998,2147557983,2147570948,2147361645,2267,0,-12,33080
1341182935,6503,187.6900024414062500,5.1241998672485350,34.9884986877441400,335.2450866699219000,754.8928833007812000,5.1147651672363280,34.4834709167480500,16,3,50,110,65,2147241782,2147557270,2147570281,2147362275,1850,0,-12,24768
1341182999,6466,184.6999969482422000,5.2237000465393070,34.9971008300781250,338.7445983886719000,752.9016113281250000,5.1842589378356930,34.3208198547363300,16,3,50,109,64,2147244013,2147558193,2147568831,2147358271,1451,0,-12,12262
1341183061,6468,181.7500000000000000,5.1764001846313480,34.9906005859375000,339.6773071289062500,753.7512207031250000,5.1546192169189450,34.3050498962402340,16,3,49,107,64,2147243747,2147557644,2147569677,2147362088,869,0,-12,61333
1341183125,6468,178.6799926757812500,5.1557998657226560,34.9850006103515600,336.9150085449219000,754.3740234375000000,5.1328830718994140,34.4142189025878900,16,3,50,106,66,2147241512,2147558404,2147569882,2147361874,120,0,-12,5045
1341183187,6468,175.7200012207031200,5.1540999412536620,34.9844017028808600,334.3696899414062500,754.4869995117188000,5.1289391517639160,34.5063591003418000,16,3,48,113,66,2147244488,2147560644,2147570043,2147362313,3053,0,-12,57817
1341183250,6469,172.7200012207031200,5.1630001068115230,34.9845008850097660,332.7666015625000000,754.2902832031250000,5.1358032226562500,34.5598106384277340,16,3,50,110,66,2147241169,2147555698,2147571076,2147362129,2457,0,-12,1704
1341183312,6468,169.8600006103515600,5.1855998039245605,34.9852981567382800,332.1090087890625000,753.7279052734375000,5.1554298400878910,34.5719490051269500,16,3,50,108,66,2147244530,2147554614,2147571355,2147362564,1881,0,-12,60633
1341183376,6468,166.8699951171875000,5.2305998802185060,34.9889984130859400,332.4713134765625000,752.5239257812500000,5.1974368095397950,34.5352783203125000,16,3,50,105,66,2147242509,2147559816,2147570372,2147362390,1516,0,-12,54990
1341183438,6467,164.0200042724609400,5.2432999610900880,34.9898986816406250,332.5870056152344000,752.0820922851562000,5.2128429412841800,34.5223999023437500,16,3,50,110,64,2147243725,2147557567,2147570952,2147362084,1205,0,-12,47741
1341183502,6468,161.1399993896484400,5.2617001533508300,34.9920997619628900,332.4753112792969000,751.5440063476562000,5.2316060066223145,34.5159416198730500,16,3,49,109,64,2147244831,2147556671,2147571277,2147364214,715,0,-12,43990
1341183564,6468,158.4299926757812500,5.2568998336791990,34.9906997680664060,332.5021972656250000,751.5941772460938000,5.2298550605773930,34.5157585144043000,12,3,50,107,66,2147241411,2147555049,2147572666,2147359615,163,0,-12,62164
1341183628,6467,155.6999969482422000,5.2674999237060550,34.9908981323242200,332.3500976562500000,751.2761840820312000,5.2409400939941410,34.5147209167480500,16,3,50,109,64,2147240960,2147556352,2147571331,2147362084,2956,0,-12,31888
1341183690,6467,153.0500030517578000,5.2834000587463380,34.9915008544921900,332.4273071289062500,750.8776855468750000,5.2548308372497560,34.5044898986816400,16,3,50,116,66,2147243830,2147558006,2147572260,2147362307,2550,0,-12,32944
1341183816,6503,147.7400054931640600,5.2997999191284180,34.9926986694335940,333.7728881835937500,750.3961181640625000,5.2716140747070310,34.4468307495117200,16,3,50,132,66,2147240456,2147555615,2147572086,2147361970,1783,0,-12,1298
1341183879,6468,145.1399993896484400,5.2818999290466310,34.9884986877441400,336.3255920410156000,750.7863159179688000,5.2580170631408690,34.3641815185546900,16,3,50,118,65,2147244346,2147557362,2147574664,2147362148,1480,0,-12,5068
1341183941,6467,142.6600036621093800,5.3154997825622560,34.9903984069824200,337.3315124511719000,749.9218750000000000,5.2881369590759280,34.3119812011718750,16,3,50,115,64,2147242682,2147558902,2147569411,2147361009,1017,0,-12,6492
1341184005,6466,140.1199951171875000,5.3628997802734375,34.9947013854980500,337.2908935546875000,748.9420166015625000,5.3222680091857910,34.2939300537109400,16,3,49,118,66,2147242409,2147558806,2147571574,2147360594,281,0,-12,2260
1341184067,6467,137.6999969482422000,5.3694000244140625,34.9967002868652340,336.4242858886719000,748.4155883789062000,5.3405971527099610,34.3143310546875000,16,3,50,110,64,2147240456,2147556392,2147575213,2147362326,3165,0,-12,54910
1341184155,6468,133.5899963378906200,5.4485001564025880,35.0049018859863300,336.5126037597656000,746.2963867187500000,5.4143490791320800,34.2700004577636700,16,3,50,116,66,2147239565,2147557810,2147575254,2147363711,2229,0,-12,11104
1341184217,6468,129.8500061035156200,5.4995999336242680,35.0111007690429700,336.9099121093750000,744.6832275390625000,5.4704489707946780,34.2242202758789060,11,3,50,113,64,2147243844,2147557480,2147575949,2147362226,1626,0,-12,36395
1341184281,6468,125.9199981689453100,5.4951000213623050,35.0093002319335940,337.6061096191406000,744.7498779296875000,5.4681258201599120,34.2013397216796900,16,3,50,115,64,2147245352,2147557297,2147576159,2147360306,755,0,-12,50211
1341184343,6469,122.0899963378906200,5.5212001800537110,35.0108985900878900,337.5893859863281000,744.1063232421875000,5.4905009269714355,34.1895103454589840,12,3,49,119,64,2147243387,2147559071,2147575282,2147362230,3211,0,-12,38204
1341184431,6467,117.3300018310546900,5.5317001342773440,35.0108985900878900,336.7308044433594000,743.7183227539062000,5.5039811134338380,34.2118911743164060,13,3,50,113,65,2147240616,2147558084,2147576123,2147360785,2239,0,-12,32150
1341184493,6466,114.8899993896484400,5.5458002090454100,35.0113983154296900,336.1402893066406000,743.3521728515625000,5.5167050361633300,34.2255897521972660,16,3,50,121,64,2147241046,2147560209,2147578171,2147358354,1898,0,-12,62175
1341184560,6465,112.3099975585937500,5.5454001426696780,35.0101013183593750,335.9978027343750000,743.2897949218750000,5.5188708305358890,34.2296104431152340,16,3,50,120,65,2147240570,2147558345,2147578427,2147362971,1577,0,-12,48419
1341184621,6469,109.9300003051757800,5.5676999092102050,35.0121002197265600,336.1698913574219000,742.7064819335938000,5.5391330718994140,34.2121810913085940,16,3,50,125,64,2147241417,2147558074,2147579515,2147358624,1226,0,-12,48218
1341184708,6468,106.0000000000000000,5.6156997680664060,35.0153007507324200,336.1961059570312500,741.4940795898438000,5.5812301635742190,34.1876602172851560,16,3,51,135,64,2147240643,2147558961,2147583793,2147360841,285,0,-12,22800
1341184769,6503,102.4000015258789000,5.6118001937866210,35.0102005004882800,337.8685913085937500,741.0908203125000000,5.5952320098876950,34.1213912963867200,16,3,52,130,64,2147238655,2147555277,2147579451,2147359547,2687,0,-12,4185
1341184832,6467,98.6500015258789000,5.6642999649047850,35.0111007690429700,339.1694030761719000,739.9428710937500000,5.6350650787353520,34.0536994934082000,16,3,50,140,64,2147241252,2147557814,2147582353,2147362976,1916,0,-12,54294
1341184893,6468,95.1100006103515600,5.6645998954772950,35.0106010437011700,338.5350952148437500,739.7788696289062000,5.6407570838928220,34.0727806091308600,13,3,51,140,64,2147243140,2147560360,2147585612,2147361430,1299,0,-12,26109
1341184956,6468,91.5000000000000000,5.6465001106262210,35.0013008117675800,337.9606933593750000,740.2374877929688000,5.6248440742492680,34.1014900207519500,16,3,50,141,64,2147243816,2147558408,2147587620,2147364538,763,0,-12,64737
1341185017,6467,88.1500015258789000,5.7177000045776370,35.0078010559082000,336.7265930175781000,738.3820800781250000,5.6891961097717285,34.1087303161621100,14,3,50,147,64,2147240384,2147558769,2147588100,2147364233,3537,0,-12,22315
1341185080,6504,84.8199996948242200,5.8276000022888180,35.0147018432617200,335.3283081054687500,735.4877929687500000,5.7894859313964840,34.1026306152343750,27,3,52,153,64,2147240314,2147560753,2147588822,2147361814,2640,0,-12,20053
1341185141,6467,81.6900024414062500,5.8491997718811035,35.0149002075195300,334.5596008300781000,734.5953979492188000,5.8203830718994140,34.1122207641601560,21,3,52,160,65,2147240242,2147560470,2147592570,2147363661,2086,0,-12,53811
1341185204,6467,78.5400009155273400,5.9092001914978030,35.0158004760742200,336.1026000976562500,732.8402709960938000,5.8811168670654300,34.0244903564453100,15,3,52,151,64,2147239999,2147562276,2147595227,2147362093,1599,0,-12,60304
1341185265,6468,75.5400009155273400,5.9500999450683590,35.0168991088867200,338.1224060058594000,731.7064819335938000,5.9203238487243650,33.9321403503418000,15,3,54,153,64,2147244044,2147561681,2147596027,2147365215,992,0,-12,5447
1341185328,6468,72.5199966430664000,6.0398998260498050,35.0200996398925800,341.4158020019531000,729.2694702148438000,6.0045428276062010,33.7721595764160160,16,3,56,155,64,2147244360,2147564132,2147602139,2147367995,365,0,-12,52272
1341185389,6467,69.5899963378906200,6.0696997642517090,35.0222015380859400,343.0103149414062500,728.0994262695312000,6.0449490547180180,33.6953086853027340,40,3,59,150,64,2147241457,2147564268,2147603903,2147365961,3068,0,-12,29234
1341185452,6467,66.5699996948242200,6.1649999618530270,35.0284004211425800,343.1828918457031000,725.0034179687500000,6.1517658233642580,33.6309013366699200,15,3,58,154,62,2147242326,2147564433,2147609901,2147366596,2381,0,-12,61810
1341185513,6503,63.6699981689453100,6.1455998420715330,35.0251007080078100,343.3953857421875000,725.2207031250000000,6.1442761421203610,33.6278114318847660,16,3,62,148,62,2147242632,2147564882,2147614161,2147370326,1777,0,-12,54425
1341185576,6468,60.7299995422363300,6.2915000915527340,35.0387001037597660,341.7236938476562500,721.9871826171875000,6.2557010650634770,33.6241683959960940,23,3,62,169,63,2147241256,2147570880,2147616470,2147368520,1261,0,-12,18967
1341185637,6468,57.8699989318847660,6.3125000000000000,35.0420989990234400,339.6235046386719000,721.3507080078125000,6.2776179313659670,33.6846694946289060,15,3,64,168,64,2147242336,2147569302,2147621215,2147369526,600,0,-12,56439
1341185700,6467,54.9199981689453100,6.3653998374938965,35.0463981628418000,338.9388122558594000,719.7869262695312000,6.3314437866210940,33.6789588928222660,17,3,72,195,64,2147244100,2147569576,2147627090,2147369690,3417,0,-12,53077
1341185761,6468,52.0000000000000000,6.2530999183654785,35.0231018066406250,343.0354003906250000,722.1312866210938000,6.2507400512695310,33.5821685791015600,20,3,80,189,64,2147244109,2147573210,2147630435,2147374495,2541,0,-12,43252
1341185824,6468,48.9599990844726560,6.2413001060485840,35.0119018554687500,346.7464904785156000,722.5626831054688000,6.2358779907226560,33.4642906188964840,29,3,90,184,64,2147246934,2147576146,2147639305,2147374852,1942,0,-12,64632
1341185885,6469,46.0600013732910160,6.3085999488830570,35.0055999755859400,350.2980041503906000,721.1013793945312000,6.2862029075622560,33.3183097839355500,25,3,113,227,65,2147250335,2147582861,2147642518,2147375286,1501,0,-12,17601
1341185948,6468,43.0900001525878900,6.3819999694824220,35.0088005065918000,352.4366149902344000,718.9688110351562000,6.3595848083496090,33.2077293395996100,31,3,130,222,64,2147253654,2147583418,2147656594,2147379039,896,0,-12,11384
1341186009,6469,40.1100006103515600,6.5657000541687010,35.0167007446289060,350.2857055664062500,714.4384155273438000,6.5152721405029300,33.1950988769531250,34,3,171,254,64,2147256237,2147590390,2147667021,2147386344,261,0,-12,6
1341186072,6470,37.0299987792968750,6.6380000114440920,34.9861984252929700,353.3147888183594000,711.3408203125000000,6.6215591430664060,33.0380592346191400,37,3,198,318,64,2147266623,2147598605,2147689028,2147392506,3291,0,-11,58914
1341186133,6505,34.1699981689453100,7.3467001914978030,34.9738998413085940,354.7858886718750000,693.1074218750000000,7.2445511817932130,32.6600608825683600,71,3,348,498,64,2147278275,2147616754,2147721179,2147403442,2422,0,-10,1470
1341186196,6504,31.8700008392334000,7.6019001007080080,34.9776000976562500,358.8310852050781000,684.6392822265625000,7.5323939323425290,32.3798713684082000,94,3,397,646,64,2147292726,2147641033,2147764118,2147417032,1759,0,-12,31658
1341186257,6505,29.7399997711181640,7.6982002258300780,34.9799995422363300,363.8877868652344000,681.4523925781250000,7.6404781341552730,32.1635208129882800,119,3,464,795,65,2147315898,2147672022,2147818857,2147437027,1199,0,-12,3552
1341186336,6470,26.5799999237060550,7.9819002151489260,34.9888000488281250,372.8135070800781000,672.1342163085938000,7.9557719230651855,31.7260799407959000,149,3,636,1077,66,2147382422,2147749065,2147941472,2147477924,568,0,-12,36759
1341186409,6506,22.6800003051757800,8.2019996643066400,34.9795989990234400,386.9086914062500000,666.0225830078125000,8.1619672775268550,31.2023906707763670,121,3,803,882,63,2147527940,2147916278,2148173526,2147558888,2707,0,-11,65325
1341186472,6503,19.2000007629394530,8.6150999069213870,34.9710998535156250,395.8078918457031000,652.9741821289062000,8.6006698608398440,30.7291107177734380,120,3,863,774,64,2147754472,2148167771,2148483464,2147680858,1869,0,-8,52931
1341186533,6470,16.3600006103515620,9.2304000854492190,34.9705009460449200,401.4970092773437500,634.1928710937500000,9.2285423278808600,30.2640705108642580,105,3,809,722,64,2148007597,2148442962,2148791881,2147802468,1952,0,-10,61467
1341186596,6471,14.2299995422363280,10.9503002166748050,34.9646987915039060,385.4335021972656000,588.0510864257812000,10.7543201446533200,29.9902706146240230,101,3,628,608,61,2148150312,2148602266,2148951108,2147870175,2126,0,-8,41648
1341186757,6469,12.1300001144409180,11.0145998001098630,34.9863014221191400,364.3103027343750000,580.5512695312500000,11.0002002716064450,30.4979991912841800,85,3,564,541,61,2148380841,2148857686,2149194418,2147984420,3156,0,-11,38039
1341186818,6470,9.8500003814697270,11.0783996582031250,34.9886016845703100,361.0881958007812500,578.4785766601562000,11.0680599212646480,30.5648708343505860,77,3,534,539,61,2148756447,2149256570,2149569334,2148168804,2844,1,-8,18090
1341186897,6469,6.0300002098083500,11.1981000900268550,34.9860992431640600,359.3629150390625000,574.7733154296875000,11.1892499923706050,30.5612106323242200,84,3,498,517,60,2149613165,2150172982,2150403570,2148655565,2381,0,-9,54519
1341186961,6470,37.0000000000000000,0.0000000000000000,0.0000000000000000,358.4328002929687500,571.0529174804688000,11.3107995986938480,30.5330104827880860,87,3,487,473,60,2150155592,2150745631,2150878577,2149045581,2288,6,-14,24579
1341186996,6470,18.0000000000000000,0.0000000000000000,0.0000000000000000,358.0744018554687500,570.2153930664062000,11.3381500244140620,30.5312500000000000,83,3,474,528,59,2150652873,2151266660,2151328319,2149566267,2931,-4,-22,61860
1341187021,6471,0.6499999761581421,0.0000000000000000,0.0000000000000000,358.0665893554687500,570.4191894531250000,11.3315000534057620,30.5345993041992200,74,3,473,473,58,2151799706,2152453402,2151994157,2150652694,2206,-7,-23,12008
